Change the Weather History Date:

Friday, March 28, 2014

  Actual Average Record
Temperature  
Mean Temperature 22 °F -  
Max Temperature 28 °F 48 °F 79 °F (1986)
Min Temperature 15 °F 28 °F 1 °F (1969)
Degree Days  
Heating Degree Days 44    
Moisture  
Dew Point 14 °F    
Average Humidity 70    
Maximum Humidity 86    
Minimum Humidity 59    
Precipitation  
Precipitation 0.00 in - - ()
Sea Level Pressure  
Sea Level Pressure 30.09 in    
Wind  
Wind Speed 14 mph (NNW)    
Max Wind Speed 21 mph    
Max Gust Speed 26 mph    
Visibility 10 miles    
Events      
Averages and records for this station are not official NWS values.
T = Trace of Precipitation, MM = Missing Value Source: NWS Daily Summary

Daily Weather History Graph

Daily Weather History Graph

Search for Another Location

Airport or City:

Trip Planner

Search our weather history database for the weather conditions in past years. The results will help you decide how hot, cold, wet, or windy it might be!

Date:

Astronomy

Mar. 28, 2014 Rise Set
Actual Time 7:11 AM CDT 7:45 PM CDT
Civil Twilight 6:42 AM CDT 8:15 PM CDT
Nautical Twilight 6:07 AM CDT 8:49 PM CDT
Astronomical Twilight 5:32 AM CDT 9:25 PM CDT
Moon 5:48 AM CDT (3/28) 5:39 PM CDT (3/28)
Length of Visible Light 13h 32m
Length of Day
12h 34m
Waning Crescent, 6% of the Moon is Illuminated
Mar 28
Waning Crescent
Mar 30
New
Apr 7
First Quarter
Apr 15
Full
Apr 22
Last Quarter

Hourly Weather History & Observations

Time (CDT) Temp. Windchill Dew Point Humidity Pressure Visibility Wind Dir Wind Speed Gust Speed Precip Events Conditions
12:15 AM 28.4 °F 15.4 °F 19.4 °F 69% 29.84 in 10.0 mi NNW 19.6 mph - N/A   Overcast
12:35 AM 26.6 °F 12.7 °F 19.4 °F 74% 29.85 in 10.0 mi NNW 20.7 mph 26.5 mph N/A   Overcast
12:55 AM 26.6 °F 13.1 °F 17.6 °F 69% 29.86 in 10.0 mi NNW 19.6 mph - N/A   Overcast
1:15 AM 26.6 °F 13.1 °F 17.6 °F 69% 29.86 in 10.0 mi NNW 19.6 mph - N/A   Overcast
1:35 AM 24.8 °F 10.7 °F 17.6 °F 74% 29.87 in 10.0 mi NNW 19.6 mph - N/A   Overcast
1:55 AM 24.8 °F 10.7 °F 15.8 °F 69% 29.88 in 10.0 mi NNW 19.6 mph - N/A   Overcast
2:15 AM 24.8 °F 10.7 °F 15.8 °F 69% 29.89 in 10.0 mi NNW 19.6 mph - N/A   Overcast
2:35 AM 24.8 °F 10.7 °F 15.8 °F 69% 29.91 in 10.0 mi NNW 19.6 mph - N/A   Overcast
2:55 AM 23.0 °F 9.2 °F 15.8 °F 74% 29.92 in 10.0 mi NNW 17.3 mph - N/A   Overcast
3:15 AM 21.2 °F 7.3 °F 14.0 °F 74% 29.92 in 10.0 mi NNW 16.1 mph - N/A   Overcast
3:35 AM 21.2 °F 7.3 °F 12.2 °F 68% 29.93 in 10.0 mi NNW 16.1 mph - N/A   Overcast
3:55 AM 21.2 °F 8.3 °F 12.2 °F 68% 29.93 in 10.0 mi NNW 13.8 mph - N/A   Partly Cloudy
4:15 AM 19.4 °F 3.6 °F 12.2 °F 74% 29.93 in 10.0 mi North 19.6 mph - N/A   Clear
4:35 AM 19.4 °F 5.0 °F 10.4 °F 68% 29.94 in 10.0 mi NNW 16.1 mph - N/A   Clear
4:55 AM 19.4 °F 5.5 °F 10.4 °F 68% 29.95 in 10.0 mi NNW 15.0 mph - N/A   Clear
5:15 AM 17.6 °F 4.3 °F 10.4 °F 73% 29.96 in 10.0 mi North 12.7 mph - N/A   Clear
5:35 AM 17.6 °F 4.3 °F 10.4 °F 73% 29.96 in 10.0 mi North 12.7 mph - N/A   Clear
5:55 AM 17.6 °F 4.3 °F 8.6 °F 68% 29.98 in 10.0 mi NNW 12.7 mph - N/A   Clear
6:15 AM 17.6 °F 5.0 °F 8.6 °F 68% 29.99 in 10.0 mi NNW 11.5 mph - N/A   Clear
6:35 AM 15.8 °F 4.2 °F 8.6 °F 73% 30.00 in 10.0 mi NW 9.2 mph - N/A   Clear
6:55 AM 15.8 °F 4.2 °F 8.6 °F 73% 30.00 in 10.0 mi NNW 9.2 mph - N/A   Clear
7:15 AM 15.8 °F 2.7 °F 8.6 °F 73% 30.02 in 10.0 mi NW 11.5 mph - N/A   Clear
7:35 AM 15.8 °F 2.7 °F 8.6 °F 73% 30.05 in 10.0 mi NW 11.5 mph - N/A   Clear
7:55 AM 15.8 °F 2.7 °F 8.6 °F 73% 30.05 in 10.0 mi NW 11.5 mph - N/A   Clear
8:15 AM 15.8 °F 2.1 °F 8.6 °F 73% 30.05 in 10.0 mi NNW 12.7 mph - N/A   Clear
8:35 AM 17.6 °F 3.7 °F 8.6 °F 68% 30.04 in 10.0 mi NNW 13.8 mph - N/A   Clear
8:55 AM 17.6 °F 4.3 °F 10.4 °F 73% 30.06 in 10.0 mi NNW 12.7 mph - N/A   Clear
9:15 AM 17.6 °F 4.3 °F 8.6 °F 68% 30.08 in 10.0 mi NNW 12.7 mph - N/A   Clear
9:35 AM 17.6 °F 3.2 °F 10.4 °F 73% 30.08 in 10.0 mi NNW 15.0 mph - N/A   Clear
9:55 AM 19.4 °F 6.0 °F 10.4 °F 68% 30.10 in 10.0 mi NW 13.8 mph - N/A   Clear
10:15 AM 19.4 °F 5.5 °F 10.4 °F 68% 30.12 in 10.0 mi NW 15.0 mph - N/A   Clear
10:35 AM 19.4 °F 7.2 °F 10.4 °F 68% 30.11 in 10.0 mi North 11.5 mph - N/A   Clear
10:55 AM 19.4 °F 7.9 °F 10.4 °F 68% 30.12 in 10.0 mi NNW 10.4 mph - N/A   Clear
11:15 AM 21.2 °F 8.9 °F 12.2 °F 68% 30.11 in 10.0 mi North 12.7 mph - N/A   Clear
11:35 AM 21.2 °F 8.9 °F 12.2 °F 68% 30.11 in 10.0 mi North 12.7 mph - N/A   Clear
11:55 AM 21.2 °F 8.3 °F 12.2 °F 68% 30.12 in 10.0 mi NNW 13.8 mph - N/A   Clear
12:15 PM 23.0 °F 12.4 °F 12.2 °F 63% 30.13 in 10.0 mi NNW 10.4 mph - N/A   Clear
12:35 PM 23.0 °F 13.1 °F 12.2 °F 63% 30.13 in 10.0 mi North 9.2 mph - N/A   Clear
12:55 PM 23.0 °F 11.7 °F 14.0 °F 68% 30.13 in 10.0 mi NNW 11.5 mph - N/A   Clear
1:15 PM 23.0 °F 13.1 °F 12.2 °F 63% 30.14 in 10.0 mi NNW 9.2 mph - N/A   Clear
1:35 PM 24.8 °F 14.6 °F 14.0 °F 64% 30.16 in 10.0 mi North 10.4 mph - N/A   Clear
1:55 PM 24.8 °F 14.0 °F 14.0 °F 64% 30.16 in 10.0 mi NNW 11.5 mph - N/A   Clear
2:15 PM 24.8 °F 14.0 °F 15.8 °F 69% 30.16 in 10.0 mi North 11.5 mph - N/A   Clear
2:35 PM 24.8 °F 14.6 °F 15.8 °F 69% 30.15 in 10.0 mi North 10.4 mph - N/A   Clear
2:55 PM 24.8 °F 14.6 °F 15.8 °F 69% 30.15 in 10.0 mi North 10.4 mph - N/A   Clear
3:15 PM 26.6 °F 16.2 °F 15.8 °F 64% 30.16 in 10.0 mi North 11.5 mph - N/A   Clear
3:35 PM 26.6 °F 15.7 °F 15.8 °F 64% 30.16 in 10.0 mi North 12.7 mph - N/A   Clear
3:55 PM 26.6 °F 16.2 °F 15.8 °F 64% 30.17 in 10.0 mi NNW 11.5 mph - N/A   Partly Cloudy
4:15 PM 26.6 °F 15.7 °F 15.8 °F 64% 30.17 in 10.0 mi North 12.7 mph - N/A   Clear
4:35 PM 28.4 °F 17.0 °F 15.8 °F 59% 30.18 in 10.0 mi NNW 15.0 mph - N/A   Clear
4:55 PM 26.6 °F 16.8 °F 17.6 °F 69% 30.18 in 10.0 mi North 10.4 mph - N/A   Clear
5:15 PM 28.4 °F 19.1 °F 17.6 °F 64% 30.19 in 10.0 mi North 10.4 mph - N/A   Clear
5:35 PM 28.4 °F 20.4 °F 19.4 °F 69% 30.19 in 10.0 mi North 8.1 mph - N/A   Mostly Cloudy
5:55 PM 28.4 °F 21.2 °F 17.6 °F 64% 30.20 in 10.0 mi North 6.9 mph - N/A   Scattered Clouds
6:15 PM 28.4 °F 22.2 °F 19.4 °F 69% 30.20 in 10.0 mi North 5.8 mph - N/A   Partly Cloudy
6:35 PM 28.4 °F 20.4 °F 17.6 °F 64% 30.20 in 10.0 mi North 8.1 mph - N/A   Clear
6:55 PM 28.4 °F 20.4 °F 17.6 °F 64% 30.20 in 10.0 mi North 8.1 mph - N/A   Clear
7:15 PM 28.4 °F 23.3 °F 17.6 °F 64% 30.21 in 10.0 mi North 4.6 mph - N/A   Clear
7:35 PM 28.4 °F 24.6 °F 17.6 °F 64% 30.21 in 10.0 mi NNW 3.5 mph - N/A   Clear
7:55 PM 26.6 °F 22.6 °F 17.6 °F 69% 30.21 in 10.0 mi NW 3.5 mph - N/A   Clear
8:15 PM 26.6 °F 20.0 °F 17.6 °F 69% 30.21 in 10.0 mi NNW 5.8 mph - N/A   Clear
8:35 PM 24.8 °F 17.9 °F 15.8 °F 69% 30.21 in 10.0 mi NNW 5.8 mph - N/A   Clear
8:55 PM 23.0 °F 17.0 °F 15.8 °F 74% 30.21 in 10.0 mi NW 4.6 mph - N/A   Clear
9:15 PM 21.2 °F 13.6 °F 15.8 °F 80% 30.22 in 10.0 mi WNW 5.8 mph - N/A   Clear
9:35 PM 19.4 °F 12.8 °F 15.8 °F 86% 30.23 in 10.0 mi WNW 4.6 mph - N/A   Clear
9:55 PM 19.4 °F 12.8 °F 14.0 °F 80% 30.23 in 10.0 mi WNW 4.6 mph - N/A   Clear
10:15 PM 19.4 °F 10.4 °F 14.0 °F 80% 30.24 in 10.0 mi West 6.9 mph - N/A   Clear
10:35 PM 19.4 °F 10.4 °F 14.0 °F 80% 30.25 in 10.0 mi West 6.9 mph - N/A   Clear
10:55 PM 19.4 °F 10.4 °F 12.2 °F 74% 30.25 in 10.0 mi West 6.9 mph - N/A   Clear
11:15 PM 19.4 °F 11.5 °F 14.0 °F 80% 30.26 in 10.0 mi West 5.8 mph - N/A   Clear
11:35 PM 19.4 °F 11.5 °F 12.2 °F 74% 30.26 in 10.0 mi West 5.8 mph - N/A   Clear
11:55 PM 17.6 °F 9.3 °F 12.2 °F 79% 30.26 in 10.0 mi WSW 5.8 mph - N/A   Clear